Flag for Canada Weather past 2 weeks in St. Albert, Alberta, Canada

Now
56 °F

Cool.


Feels Like: 53 °F
Forecast: 51 / 65 °F
Wind: 13 mph from Northwest

Location: Edmonton Municipal

Current Time: Jul 5, 2015 at 2:14:06 AM

Latest Report: Jul 5, 2015 at 1:00 AM


Visibility: N/A

Pressure: 30.08 "Hg (27.83 "Hg at 653m altitude)

Humidity: 72%

Dew point: 47 °F

Location of St. AlbertLocation

Historic Weather in St. Albert — Graph

°F

St. Albert temperature yesterday

Maximum temperature yesterday: 71 °F (at 1:00 PM)
Minimum temperature yesterday: 59 °F (at 11:00 PM)
Average temperature yesterday: 65 °F

Past Weeks' High & Low Weather Summary

 TemperatureHumidityPressure
High89 °F (Jun 28, 4:00 PM)95% (Jun 20, 5:00 AM)30.09 "Hg (Jun 20, 5:00 AM)
Low47 °F (Jun 20, 5:00 AM)13% (Jul 3, 7:00 PM)29.76 "Hg (Jul 3, 8:00 PM)
Average68 °F55%29.98 "Hg
* Reported Jun 20 1:00 AM — Jul 5 1:00 AM, St. Albert, Weather by CustomWeather, © 2015

Note: Actual official high and low records may vary slightly from our data, if they occured in-between our weather recording intervals... More about our weather records

Advertising

St. Albert weather history for previous 24 hours

 ConditionsComfort  
Time TempWeatherWind HumidityBarometerVisibility
1:00 AM
Sun, Jul 5
56 °FCool.13 mph72%30.08 "HgN/A
12:00 AM57 °FCool.10 mph71%30.08 "HgN/A
11:00 PM
Sat, Jul 4
59 °FCool.14 mph61%30.06 "HgN/A
10:00 PM60 °FRefreshingly cool.9 mph59%30.04 "HgN/A
9:00 PM62 °FRefreshingly cool.12 mph49%30.03 "HgN/A
8:00 PM63 °FMild.15 mph44%30.01 "HgN/A
7:00 PM69 °FMild.15 mph31%29.98 "HgN/A
6:00 PM68 °FMild.15 mph32%29.96 "HgN/A
5:00 PM68 °FMild.13 mph34%29.96 "HgN/A
4:00 PM68 °FMild.10 mph41%29.96 "HgN/A
3:00 PM69 °FMild.15 mph36%29.96 "HgN/A
2:00 PM71 °FMild.14 mph38%29.93 "HgN/A
1:00 PM71 °FMild.10 mph34%29.93 "HgN/A
12:00 PM70 °FMild.8 mph36%29.93 "HgN/A
11:00 AM67 °FMild.6 mph42%29.93 "HgN/A
10:00 AM66 °FMild.7 mph40%29.92 "HgN/A
9:00 AM64 °FMild.8 mph46%29.92 "HgN/A
8:00 AM62 °FMild.7 mph46%29.92 "HgN/A
7:00 AM60 °FRefreshingly cool.10 mph53%29.90 "HgN/A
6:00 AM61 °FRefreshingly cool.5 mph50%29.88 "HgN/A
5:00 AM62 °FRefreshingly cool.7 mph47%29.88 "HgN/A
4:00 AM64 °FMild.6 mph40%29.87 "HgN/A
3:00 AM64 °FMild.6 mph41%29.86 "HgN/A
2:00 AM65 °FMild.5 mph39%29.85 "HgN/A
Weather by CustomWeather, © 2015

See weather overviewHow to use our weather pages